Vertical_Velocity
1 0 0 1 -0 1 2 2 -1 2 1 -1 0 -1 -1 -2 -2 -4 -3 12 3 -0 4 4 2 4 7 3 8 7 -3 -9 -9 4 0 7 3 3 0 -5 -1 2 -2 0 3
-1 -1 1 2 -0 -0 -0 -1 1 0 1 -1 -1 -2 0 -5 -6 -12 29 2 8 2 -0 7 6 6 0 3 9 0 -3 -8 0 5 2 4 -1 4 0 -1 -8 -3 -1 -1 -2
1 -1 -2 -3 -1 0 -1 -2 2 0 0 1 1 0 -1 -4 -10 3 0 4 3 4 1 5 1 4 4 5 6 -8 -12 11 5 3 -8 1 3 1 5 0 -4 -8 -2 1 0
-2 -2 -2 -1 -2 -0 -2 -0 -1 0 -0 -0 -0 2 -3 -2 -18 -5 1 2 1 7 -3 5 -1 -7 0 -11 -3 -9 8 -1 10 -2 -8 -2 -1 2 3 4 7 -1 5 5 2
-3 -0 -0 -2 -2 -2 0 -1 -3 0 -0 -2 2 1 -5 -7 -6 -1 2 -0 7 1 4 5 -3 12 -9 4 8 4 -4 3 7 -10 -1 4 -1 1 -1 2 3 1 2 0 -2
-3 -2 1 0 -2 -2 -2 -3 -1 -2 -1 -1 4 -2 -5 -18 7 3 1 2 4 9 10 1 5 10 13 6 -7 -8 3 12 12 -15 4 0 6 1 3 -2 4 0 -0 1 1
-1 -2 -1 -0 -1 -2 -2 -2 -1 -3 -1 0 3 -5 -6 -5 7 1 9 4 2 2 -0 12 17 6 8 4 11 -4 8 18 -2 2 -24 9 -4 -11 5 3 4 4 0 2 -3
-0 -1 -1 -1 -1 -3 -2 -4 -1 -0 -3 1 2 1 -11 -1 -2 -3 7 3 7 3 3 4 5 11 3 5 5 -2 25 6 -16 -2 -0 4 -24 2 1 1 -1 0 -1 0 2
-4 -2 -0 -1 -1 -4 -3 -3 -2 -1 -4 -0 2 6 -14 1 -3 -2 0 -3 5 2 -1 6 15 2 21 12 10 9 -7 -7 -3 3 13 -7 -12 -4 -0 3 -1 2 -4 2 1
-3 -2 -3 -1 -3 -4 -3 -2 -3 2 -1 1 -2 -4 -3 1 0 1 1 1 10 4 5 2 8 1 7 9 -16 1 -0 3 -10 -13 3 3 -2 2 2 2 0 -1 1 -3 2
-1 -1 -3 -1 -3 -3 -4 -6 -15 -30 12 9 8 -10 13 -1 3 -1 5 1 4 9 -10 -1 13 -26 -40 -22 23 5 10 4 -1 -1 4 1 2 -3 3 5 -2 -3 -4 -1 -0
-3 -5 -2 -3 -2 -1 -4 -3 2 2 -42 8 3 -0 1 -0 -19 3 11 -2 3 2 18 16 -29 -24 43 12 -1 -3 12 -3 2 4 6 3 -2 -5 -6 -9 -2 -1 -4 2 2
-2 -1 -4 -3 -4 -1 -3 -1 0 -1 -6 3 1 -0 -2 -1 -5 -1 -6 -1 2 3 3 -10 -7 16 -4 7 13 -9 26 1 -11 4 7 2 3 -7 -8 -4 1 -4 4 6 6
-4 -4 -6 -4 -3 -1 0 0 -1 0 -6 -4 -1 1 -0 -1 -8 -4 1 4 -5 -1 -2 -13 12 22 -3 -5 26 21 -3 13 8 -0 -9 6 -8 -11 -5 -1 -4 -2 -6 -2 -0
0 -2 -0 -4 -2 -2 1 -1 -1 1 -6 4 -4 2 1 2 -9 -0 4 7 -4 -4 -0 -36 -18 6 18 -43 11 6 -3 -6 0 14 5 5 3 -13 -2 -12 -12 -2 -1 -1 2
1 -4 0 -2 -4 -1 1 -2 1 -5 -15 -13 -2 -6 -5 6 1 2 4 -0 3 -1 10 -7 -4 14 -8 10 9 6 18 22 25 0 8 -5 -3 -10 -13 -7 5 -1 -3 -1 -4
0 0 -4 -2 -3 0 -2 -4 -1 -6 1 -7 -25 -4 1 -5 -2 16 32 25 1 1 -3 7 -13 5 3 5 24 36 13 5 9 8 -3 1 5 -26 -0 -7 -1 -1 -4 -4 -5
-2 -1 -2 -4 -2 -2 -0 -1 -6 2 -1 -3 0 -0 -2 -2 -2 3 3 -14 3 14 -5 6 16 -1 5 -23 -23 8 -6 -5 -3 -2 -1 4 -5 -24 -2 4 7 -0 3 7 2
3 -2 -1 -1 1 -1 -1 -7 -1 1 2 -5 -6 -4 0 4 4 -2 2 3 -5 4 -1 11 -1 0 6 4 4 -4 9 5 -7 0 -4 -2 -2 -2 -6 -5 4 -2 0 0 -1
0 -2 -5 -2 1 -1 0 -3 -0 0 -1 2 0 5 1 -5 -0 11 5 4 4 6 -7 -10 9 7 2 18 9 -7 -9 0 -1 -3 -0 -0 -1 -11 -6 -0 4 1 -7 1 -0
-3 -5 2 -1 -0 -3 -4 -2 1 4 1 -1 -0 1 5 -2 6 -1 14 6 3 6 7 -1 3 18 10 3 -10 4 8 -0 1 -0 -4 -2 -4 -1 -1 -1 -2 -3 -2 1 4
-0 -5 -1 -1 -4 -2 -3 -1 2 -1 4 -2 -1 2 4 -1 -2 3 11 20 7 8 -0 1 -6 12 3 -1 -0 -3 -2 -4 -5 0 -0 1 1 6 1 -3 -6 -1 3 -2 2
-3 -7 -0 -1 -2 -2 1 2 1 -4 0 -1 -1 3 3 -0 -3 1 -3 -1 2 8 4 9 -2 3 9 5 6 2 -0 1 0 -0 -1 -4 1 2 2 2 -0 0 2 -0 1
-5 -6 -1 -0 -1 -3 -6 -4 -4 3 2 3 -0 4 -3 -2 6 -1 4 -2 1 3 9 -0 -4 -3 -1 -8 -8 -5 -4 2 2 0 -3 -6 -3 2 6 2 4 1 1 3 -1
-3 0 1 1 1 -1 -2 -3 -1 -8 2 -1 3 5 2 -3 -6 -3 2 -5 7 3 3 2 2 -1 3 -1 2 1 -3 -3 -8 -1 -6 -6 -0 -4 3 2 5 2 -2 -0 0
-1 -3 2 0 1 -1 -1 -0 -2 4 1 0 2 3 1 1 5 -13 -0 7 7 -5 1 3 1 -0 -0 4 -3 -6 4 -2 11 2 4 -9 -5 2 1 -0 0 -1 -3 -1 -1
-3 -2 1 3 2 1 -3 -3 -0 -4 8 3 -3 1 1 1 -0 3 -1 0 -3 5 0 2 1 -0 1 6 0 6 -14 -14 1 1 -4 -9 -12 2 5 7 1 -1 -3 -3 0
Height
3073 3068 3064 3060 3056 3053 3050 3046 3042 3040 3037 3037 3036 3035 3034 3033 3034 3035 3036 3043 3041 3042 3045 3045 3047 3050 3053 3055 3057 3059 3062 3058 3062 3068 3072 3077 3081 3084 3087 3090 3093 3096 3100 3103 3105
3068 3063 3059 3055 3051 3047 3043 3040 3036 3033 3031 3029 3027 3027 3026 3026 3026 3026 3034 3034 3036 3037 3040 3042 3043 3046 3048 3049 3052 3052 3051 3051 3060 3066 3069 3075 3077 3080 3083 3086 3090 3093 3097 3099 3101
3063 3057 3053 3049 3044 3039 3035 3032 3028 3025 3022 3020 3018 3017 3017 3018 3017 3020 3024 3026 3028 3030 3033 3036 3039 3040 3042 3045 3046 3045 3042 3051 3057 3062 3066 3071 3074 3075 3078 3080 3085 3091 3094 3096 3098
3057 3052 3048 3042 3038 3032 3027 3022 3019 3015 3012 3010 3008 3007 3007 3009 3010 3010 3013 3015 3019 3023 3026 3029 3032 3033 3035 3036 3041 3042 3043 3048 3055 3060 3065 3067 3069 3072 3074 3079 3085 3089 3092 3094 3096
3053 3047 3041 3035 3030 3024 3019 3014 3010 3007 3004 3000 2998 2996 2997 2995 2995 3005 3007 3007 3010 3013 3019 3022 3025 3028 3029 3031 3037 3036 3040 3046 3049 3055 3060 3063 3066 3068 3071 3075 3079 3083 3087 3091 3094
3047 3041 3034 3029 3022 3016 3011 3007 3002 2998 2994 2991 2987 2987 2986 2981 2989 2996 2998 3001 3004 3006 3012 3015 3018 3022 3025 3028 3031 3034 3038 3040 3045 3047 3055 3058 3062 3064 3068 3071 3075 3079 3084 3087 3092
3041 3034 3028 3021 3015 3009 3004 3000 2995 2991 2987 2983 2980 2980 2973 2970 2979 2986 2989 2993 2998 3000 3003 3009 3014 3017 3020 3024 3027 3032 3034 3036 3038 3044 3046 3053 3055 3057 3063 3067 3071 3075 3080 3084 3088
3035 3028 3021 3015 3009 3003 2998 2994 2989 2984 2980 2976 2974 2973 2961 2964 2969 2971 2979 2981 2988 2991 2996 3002 3006 3010 3013 3018 3021 3025 3027 3030 3033 3040 3043 3050 3046 3055 3059 3064 3067 3071 3076 3080 3084
3028 3022 3016 3010 3004 2997 2992 2987 2982 2977 2974 2969 2967 2965 2959 2963 2962 2961 2962 2966 2974 2981 2986 2996 3000 3002 3007 3011 3016 3016 3019 3022 3028 3033 3039 3043 3043 3051 3056 3060 3063 3067 3071 3076 3080
3023 3016 3011 3005 2999 2992 2986 2981 2976 2973 2969 2965 2963 2964 2962 2960 2959 2960 2960 2959 2966 2972 2980 2987 2991 2993 2996 3002 3000 3006 3012 3015 3021 3025 3031 3035 3036 3044 3050 3054 3059 3063 3067 3072 3075
3018 3012 3006 3001 2994 2987 2981 2976 2970 2967 2967 2963 2961 2956 2955 2956 2956 2957 2957 2957 2960 2965 2969 2977 2983 2980 2980 2985 2994 3004 3008 3010 3015 3022 3027 3029 3034 3038 3047 3050 3054 3059 3062 3066 3070
3013 3008 3003 2997 2990 2984 2978 2973 2969 2967 2961 2961 2958 2954 2953 2953 2951 2952 2953 2953 2955 2957 2964 2972 2969 2964 2983 2990 2995 2999 3001 3007 3013 3018 3024 3026 3028 3036 3040 3044 3048 3054 3057 3060 3066
3010 3005 2999 2993 2987 2982 2976 2973 2969 2965 2962 2960 2957 2956 2954 2951 2946 2944 2945 2946 2949 2952 2956 2960 2959 2976 2980 2984 2988 2992 2989 2998 3006 3013 3019 3023 3025 3029 3032 3036 3041 3045 3050 3054 3059
3007 3002 2996 2990 2986 2980 2975 2971 2967 2964 2960 2961 2957 2955 2952 2947 2942 2939 2940 2942 2944 2946 2953 2957 2959 2963 2973 2977 2981 2982 2991 2997 3003 3009 3013 3018 3017 3018 3023 3027 3031 3036 3041 3046 3051
3004 2999 2994 2985 2982 2978 2975 2970 2966 2963 2966 2961 2957 2954 2949 2946 2940 2934 2933 2935 2938 2944 2947 2945 2953 2956 2963 2963 2978 2981 2990 2995 2998 3003 3007 3010 3017 3009 3014 3017 3021 3027 3032 3038 3045
3002 2996 2991 2986 2980 2976 2973 2969 2965 2965 2963 2958 2956 2949 2945 2942 2935 2932 2931 2933 2936 2938 2941 2944 2952 2953 2956 2965 2975 2981 2987 2992 2991 2997 3000 2999 3005 3004 3005 3006 3015 3021 3028 3033 3039
3000 2994 2989 2984 2980 2976 2972 2969 2967 2964 2965 2960 2952 2947 2944 2938 2933 2930 2928 2932 2934 2937 2937 2940 2947 2951 2954 2961 2966 2969 2975 2985 2988 2987 2987 2993 3002 2996 3000 3005 3011 3017 3024 3029 3034
2997 2993 2987 2982 2978 2975 2972 2969 2967 2966 2963 2959 2953 2948 2944 2939 2933 2930 2928 2929 2931 2929 2931 2932 2946 2944 2947 2955 2956 2960 2969 2967 2972 2979 2987 2992 2992 2989 2999 3003 3004 3011 3017 3022 3026
2995 2991 2987 2982 2978 2975 2973 2969 2969 2966 2963 2957 2951 2947 2943 2941 2935 2930 2928 2930 2930 2930 2933 2930 2936 2940 2945 2951 2957 2959 2962 2966 2973 2979 2982 2988 2988 2989 2992 2998 3002 3006 3010 3015 3018
2995 2991 2986 2983 2979 2976 2974 2971 2968 2966 2962 2958 2955 2951 2946 2940 2935 2929 2930 2930 2929 2930 2931 2931 2929 2935 2942 2950 2953 2956 2960 2966 2969 2978 2982 2984 2986 2988 2991 2994 2997 3001 3005 3010 3013
2993 2988 2985 2982 2980 2977 2974 2972 2968 2966 2962 2959 2956 2953 2949 2945 2939 2933 2932 2931 2929 2928 2929 2931 2931 2933 2940 2945 2947 2955 2957 2963 2969 2973 2979 2987 2985 2984 2987 2991 2992 2996 2999 3003 3008
2991 2987 2985 2982 2980 2977 2975 2972 2969 2965 2962 2959 2957 2954 2951 2947 2940 2937 2933 2929 2928 2929 2929 2929 2929 2930 2937 2941 2947 2953 2958 2964 2969 2975 2976 2979 2985 2983 2984 2986 2988 2990 2993 2999 3004
2991 2987 2984 2981 2979 2977 2975 2973 2968 2964 2962 2959 2957 2956 2953 2949 2945 2941 2936 2932 2931 2929 2929 2929 2929 2926 2937 2944 2948 2952 2957 2962 2967 2972 2976 2981 2986 2984 2984 2984 2985 2986 2988 2993 2999
2991 2986 2984 2981 2977 2975 2973 2972 2968 2965 2962 2959 2957 2955 2952 2949 2947 2942 2938 2935 2932 2930 2928 2929 2932 2932 2935 2936 2943 2949 2955 2961 2966 2971 2977 2981 2984 2985 2985 2986 2985 2985 2986 2988 2993
2991 2988 2984 2982 2978 2976 2973 2971 2968 2963 2961 2958 2957 2955 2952 2948 2945 2942 2940 2936 2934 2931 2929 2931 2932 2934 2937 2940 2944 2948 2953 2959 2964 2970 2975 2980 2982 2983 2983 2985 2986 2987 2986 2987 2990
2991 2988 2985 2982 2978 2975 2973 2971 2968 2964 2960 2958 2955 2953 2951 2949 2948 2943 2940 2937 2933 2933 2934 2934 2935 2938 2940 2942 2946 2949 2953 2957 2963 2968 2973 2979 2979 2982 2983 2985 2988 2989 2988 2986 2987
2989 2987 2984 2982 2978 2975 2973 2970 2968 2964 2961 2957 2953 2950 2948 2947 2944 2943 2942 2940 2939 2937 2936 2936 2935 2939 2942 2944 2947 2951 2949 2955 2960 2965 2970 2973 2977 2979 2982 2985 2988 2989 2991 2990 2988